AAL7163 MDPC-MUCU

Flight info

Callsign AAL7163
Flight time 1h 53m
Altitude 36000
Route ETBOD2W ETBOD UA890 DEPSI KAVON4C
Aircraft A319/M-SDE3FGHIRWY/LB1

Departure

Time 2026-04-23 01:44
Airport Punta Cana International Airport (MDPC)

Arrival

Time 2026-04-23 03:37
Airport Antonio Maceo International Airport (MUCU)
Time Latitude Longitude Altitude Speed Heading
2026-04-23 00:58 18.56444 -68.36807 51 ft 0 kts 265°
2026-04-23 01:32 18.56445 -68.36789 49 ft 3 kts 265°
2026-04-23 01:32 18.56444 -68.36770 51 ft 3 kts 322°
2026-04-23 01:32 18.56436 -68.36765 51 ft 1 kts 357°
2026-04-23 01:36 18.56447 -68.36765 51 ft 3 kts 357°
2026-04-23 01:36 18.56473 -68.36767 49 ft 5 kts 357°
2026-04-23 01:36 18.56516 -68.36769 51 ft 7 kts 357°
2026-04-23 01:36 18.56522 -68.36769 51 ft 0 kts 357°
2026-04-23 01:38 18.56523 -68.36770 51 ft 0 kts 348°
2026-04-23 01:38 18.56521 -68.36779 47 ft 3 kts 251°
2026-04-23 01:39 18.56516 -68.36820 51 ft 14 kts 264°
2026-04-23 01:39 18.56500 -68.36979 50 ft 29 kts 264°
2026-04-23 01:39 18.56486 -68.37206 50 ft 32 kts 265°
2026-04-23 01:39 18.56467 -68.37437 49 ft 32 kts 265°
2026-04-23 01:40 18.56449 -68.37659 49 ft 23 kts 264°
2026-04-23 01:40 18.56507 -68.37790 49 ft 23 kts 352°
2026-04-23 01:40 18.56671 -68.37810 48 ft 23 kts 331°
2026-04-23 01:40 18.56745 -68.37956 49 ft 23 kts 293°
2026-04-23 01:41 18.56809 -68.38112 51 ft 18 kts 293°
2026-04-23 01:41 18.56814 -68.38125 49 ft 0 kts 293°
2026-04-23 01:41 18.56824 -68.38150 52 ft 12 kts 293°
2026-04-23 01:41 18.56881 -68.38245 53 ft 12 kts 313°
2026-04-23 01:42 18.56929 -68.38266 54 ft 0 kts 347°
2026-04-23 01:42 18.56952 -68.38272 54 ft 10 kts 346°
2026-04-23 01:42 18.57048 -68.38253 53 ft 18 kts 64°
2026-04-23 01:42 18.57056 -68.38227 52 ft 0 kts 74°
2026-04-23 01:43 18.57056 -68.38226 52 ft 0 kts 74°
2026-04-23 01:43 18.57112 -68.38004 51 ft 78 kts 75°
2026-04-23 01:43 18.57346 -68.37168 60 ft 158 kts 72°
2026-04-23 01:43 18.57682 -68.35960 534 ft 184 kts 73°
2026-04-23 01:44 18.58037 -68.34652 1274 ft 185 kts 74°
2026-04-23 01:44 18.58410 -68.33286 1798 ft 204 kts 73°
2026-04-23 01:44 18.58802 -68.31772 2288 ft 227 kts 78°
2026-04-23 01:44 18.58562 -68.30056 2873 ft 254 kts 117°
2026-04-23 01:45 18.57385 -68.28612 3854 ft 264 kts 136°
2026-04-23 01:45 18.55935 -68.27368 4612 ft 273 kts 141°
2026-04-23 01:45 18.54356 -68.26221 4963 ft 278 kts 150°
2026-04-23 01:45 18.52481 -68.25813 5005 ft 281 kts 185°
2026-04-23 01:46 18.50679 -68.26550 5011 ft 282 kts 214°
2026-04-23 01:46 18.49165 -68.27867 5013 ft 283 kts 225°
2026-04-23 01:46 18.47925 -68.29475 5004 ft 284 kts 244°
2026-04-23 01:46 18.47330 -68.31450 5047 ft 285 kts 263°
2026-04-23 01:47 18.47259 -68.33555 5939 ft 287 kts 272°
2026-04-23 01:47 18.47223 -68.35657 7078 ft 288 kts 270°
2026-04-23 01:47 18.47136 -68.37775 8119 ft 290 kts 268°
2026-04-23 01:47 18.47034 -68.39907 9130 ft 293 kts 268°
2026-04-23 01:48 18.46930 -68.42060 10120 ft 295 kts 269°
2026-04-23 01:48 18.46830 -68.44267 10717 ft 312 kts 268°
2026-04-23 01:48 18.46736 -68.46608 10931 ft 325 kts 269°
2026-04-23 01:48 18.46643 -68.48998 10994 ft 327 kts 268°
2026-04-23 01:49 18.46553 -68.51393 11001 ft 327 kts 269°
2026-04-23 01:49 18.46467 -68.53784 11001 ft 327 kts 269°
2026-04-23 01:49 18.46385 -68.56184 11111 ft 332 kts 269°
2026-04-23 01:49 18.46323 -68.58627 12027 ft 333 kts 269°
2026-04-23 01:50 18.46268 -68.61073 13011 ft 334 kts 269°
2026-04-23 01:50 18.46214 -68.63497 13915 ft 337 kts 269°
2026-04-23 01:50 18.46158 -68.65975 14679 ft 340 kts 269°
2026-04-23 01:50 18.46099 -68.68475 15439 ft 343 kts 269°
2026-04-23 01:51 18.46039 -68.70999 16185 ft 346 kts 269°
2026-04-23 01:51 18.45976 -68.73548 16924 ft 350 kts 269°
2026-04-23 01:51 18.45913 -68.76122 17658 ft 353 kts 269°
2026-04-23 01:51 18.45846 -68.78722 18377 ft 357 kts 269°
2026-04-23 01:52 18.45779 -68.81346 19000 ft 360 kts 269°
2026-04-23 01:52 18.45711 -68.83988 19668 ft 362 kts 269°
2026-04-23 01:52 18.45642 -68.86641 20349 ft 363 kts 269°
2026-04-23 01:52 18.45573 -68.89305 21035 ft 364 kts 269°
2026-04-23 01:53 18.45503 -68.91979 21715 ft 366 kts 269°
2026-04-23 01:53 18.45431 -68.94665 22386 ft 368 kts 269°
2026-04-23 01:53 18.45359 -68.97364 23051 ft 370 kts 269°
2026-04-23 01:53 18.45290 -69.00078 23701 ft 372 kts 269°
2026-04-23 01:54 18.45220 -69.02805 24246 ft 373 kts 269°
2026-04-23 01:54 18.45148 -69.05545 24781 ft 375 kts 269°
2026-04-23 01:54 18.45072 -69.08298 25305 ft 377 kts 269°
2026-04-23 01:54 18.44995 -69.11064 25822 ft 379 kts 269°
2026-04-23 01:55 18.44916 -69.13844 26327 ft 381 kts 269°
2026-04-23 01:55 18.44840 -69.16639 26836 ft 383 kts 269°
2026-04-23 01:55 18.44765 -69.19445 27340 ft 385 kts 269°
2026-04-23 01:55 18.44689 -69.22268 27826 ft 387 kts 269°
2026-04-23 01:56 18.44613 -69.25108 28309 ft 389 kts 269°
2026-04-23 01:56 18.44537 -69.27963 28787 ft 391 kts 269°
2026-04-23 01:56 18.44461 -69.30842 29269 ft 393 kts 269°
2026-04-23 01:56 18.44383 -69.33730 29751 ft 396 kts 269°
2026-04-23 01:57 18.44304 -69.36628 30204 ft 398 kts 268°
2026-04-23 01:57 18.44221 -69.39548 30586 ft 400 kts 268°
2026-04-23 01:57 18.44133 -69.42491 30985 ft 402 kts 268°
2026-04-23 01:57 18.44044 -69.45443 31371 ft 404 kts 268°
2026-04-23 01:58 18.43957 -69.48411 31759 ft 407 kts 268°
2026-04-23 01:58 18.43870 -69.51354 32119 ft 409 kts 267°
2026-04-23 01:58 18.43781 -69.54353 32489 ft 411 kts 267°
2026-04-23 01:58 18.43693 -69.57362 32959 ft 410 kts 267°
2026-04-23 01:59 18.43607 -69.60358 33502 ft 408 kts 267°
2026-04-23 01:59 18.43520 -69.63340 34044 ft 406 kts 266°
2026-04-23 01:59 18.43433 -69.66309 34521 ft 405 kts 267°
2026-04-23 01:59 18.43417 -69.69269 34989 ft 404 kts 269°
2026-04-23 02:00 18.43507 -69.72221 35436 ft 403 kts 271°
2026-04-23 02:00 18.43660 -69.75163 35851 ft 402 kts 271°
2026-04-23 02:00 18.43835 -69.78111 35995 ft 402 kts 271°
2026-04-23 02:00 18.44003 -69.81014 36029 ft 392 kts 271°
2026-04-23 02:01 18.44283 -69.86680 36029 ft 386 kts 271°
2026-04-23 02:01 18.44515 -69.92317 36030 ft 385 kts 270°
2026-04-23 02:02 18.44734 -69.97957 36031 ft 385 kts 270°
2026-04-23 02:02 18.44963 -70.03589 36031 ft 385 kts 270°
2026-04-23 02:03 18.45195 -70.09221 36032 ft 385 kts 270°
2026-04-23 02:03 18.45429 -70.14852 36035 ft 385 kts 270°
2026-04-23 02:04 18.45659 -70.20482 36038 ft 385 kts 270°
2026-04-23 02:04 18.45881 -70.26105 36040 ft 384 kts 270°
2026-04-23 02:05 18.46100 -70.31701 36044 ft 385 kts 270°
2026-04-23 02:05 18.46327 -70.37321 36034 ft 384 kts 271°
2026-04-23 02:06 18.46552 -70.42941 36035 ft 384 kts 270°
2026-04-23 02:06 18.46769 -70.48565 36025 ft 384 kts 270°
2026-04-23 02:07 18.46988 -70.54191 36031 ft 385 kts 270°
2026-04-23 02:07 18.47206 -70.59817 36030 ft 384 kts 270°
2026-04-23 02:08 18.47413 -70.65437 36018 ft 384 kts 270°
2026-04-23 02:08 18.47623 -70.71053 36013 ft 384 kts 270°
2026-04-23 02:09 18.47834 -70.76667 36004 ft 383 kts 270°
2026-04-23 02:09 18.48044 -70.82274 36004 ft 383 kts 270°
2026-04-23 02:10 18.48246 -70.87886 36009 ft 383 kts 270°
2026-04-23 02:10 18.48452 -70.93510 35998 ft 384 kts 270°
2026-04-23 02:11 18.48659 -70.99134 35998 ft 384 kts 270°
2026-04-23 02:11 18.48861 -71.04759 35997 ft 385 kts 270°
2026-04-23 02:12 18.49063 -71.10392 35995 ft 385 kts 270°
2026-04-23 02:12 18.49263 -71.15993 35998 ft 385 kts 270°
2026-04-23 02:13 18.49458 -71.21625 35985 ft 385 kts 270°
2026-04-23 02:13 18.49653 -71.27267 35986 ft 386 kts 270°
2026-04-23 02:14 18.49849 -71.32919 35993 ft 386 kts 270°
2026-04-23 02:14 18.50043 -71.38569 35995 ft 386 kts 270°
2026-04-23 02:15 18.50328 -71.47056 35995 ft 386 kts 270°
2026-04-23 02:16 18.50516 -71.52722 36003 ft 387 kts 270°
2026-04-23 02:16 18.50703 -71.58381 36013 ft 387 kts 270°
2026-04-23 02:17 18.50892 -71.64055 36013 ft 387 kts 270°
2026-04-23 02:17 18.51073 -71.69722 36015 ft 387 kts 270°
2026-04-23 02:18 18.51223 -71.74428 36021 ft 387 kts 270°
2026-04-23 02:18 18.51407 -71.80099 36024 ft 387 kts 270°
2026-04-23 02:19 18.51584 -71.85770 36026 ft 387 kts 270°
2026-04-23 02:19 18.52314 -71.91397 36027 ft 390 kts 280°
2026-04-23 02:20 18.53502 -71.96974 36024 ft 390 kts 279°
2026-04-23 02:20 18.54674 -72.02544 36020 ft 390 kts 279°
2026-04-23 02:21 18.55842 -72.08119 36023 ft 390 kts 279°
2026-04-23 02:21 18.57019 -72.13695 36020 ft 390 kts 279°
2026-04-23 02:22 18.58191 -72.19276 36019 ft 390 kts 279°
2026-04-23 02:22 18.59359 -72.24859 36020 ft 390 kts 279°
2026-04-23 02:23 18.60524 -72.30442 36034 ft 390 kts 279°
2026-04-23 02:23 18.61683 -72.35978 36035 ft 389 kts 279°
2026-04-23 02:24 18.62846 -72.41540 36032 ft 388 kts 279°
2026-04-23 02:24 18.64001 -72.47103 36030 ft 388 kts 279°
2026-04-23 02:25 18.65151 -72.52650 36029 ft 387 kts 279°
2026-04-23 02:25 18.66302 -72.58206 36026 ft 387 kts 279°
2026-04-23 02:26 18.67456 -72.63756 36022 ft 387 kts 279°
2026-04-23 02:26 18.68612 -72.69309 36023 ft 388 kts 279°
2026-04-23 02:27 18.69765 -72.74866 36020 ft 388 kts 279°
2026-04-23 02:27 18.70911 -72.80429 36025 ft 388 kts 279°
2026-04-23 02:28 18.72051 -72.85997 36029 ft 388 kts 279°
2026-04-23 02:28 18.73196 -72.91561 36028 ft 388 kts 279°
2026-04-23 02:29 18.74345 -72.97130 36040 ft 388 kts 279°
2026-04-23 02:29 18.75479 -73.02662 36042 ft 388 kts 279°
2026-04-23 02:30 18.76617 -73.08230 36037 ft 388 kts 279°
2026-04-23 02:30 18.77759 -73.13787 36036 ft 388 kts 279°
2026-04-23 02:31 18.78894 -73.19350 36037 ft 388 kts 279°
2026-04-23 02:31 18.80025 -73.24916 36038 ft 388 kts 279°
2026-04-23 02:32 18.81153 -73.30477 36029 ft 387 kts 279°
2026-04-23 02:32 18.82282 -73.36036 36029 ft 387 kts 279°
2026-04-23 02:33 18.83411 -73.41594 36028 ft 387 kts 279°
2026-04-23 02:33 18.84534 -73.47153 36025 ft 387 kts 279°
2026-04-23 02:34 18.85660 -73.52713 36026 ft 387 kts 279°
2026-04-23 02:34 18.86784 -73.58275 36026 ft 387 kts 279°
2026-04-23 02:35 18.87904 -73.63845 36029 ft 387 kts 279°
2026-04-23 02:35 18.89015 -73.69380 36023 ft 388 kts 279°
2026-04-23 02:36 18.90136 -73.74951 36023 ft 388 kts 279°
2026-04-23 02:36 18.91255 -73.80525 36025 ft 388 kts 279°
2026-04-23 02:37 18.92380 -73.86108 36029 ft 388 kts 279°
2026-04-23 02:37 18.93497 -73.91689 36030 ft 388 kts 278°
2026-04-23 02:38 18.94608 -73.97267 36029 ft 388 kts 279°
2026-04-23 02:38 18.95725 -74.02851 36033 ft 389 kts 279°
2026-04-23 02:39 18.96837 -74.08438 36033 ft 389 kts 278°
2026-04-23 02:39 18.97943 -74.14033 36032 ft 389 kts 278°
2026-04-23 02:40 18.99051 -74.19622 36039 ft 389 kts 279°
2026-04-23 02:40 19.00150 -74.25176 36040 ft 389 kts 278°
2026-04-23 02:41 19.01255 -74.30769 36041 ft 389 kts 278°
2026-04-23 02:41 19.02358 -74.36362 36050 ft 389 kts 278°
2026-04-23 02:42 19.03627 -74.41918 36048 ft 392 kts 287°
2026-04-23 02:42 19.05901 -74.47182 36050 ft 394 kts 291°
2026-04-23 02:43 19.08212 -74.52425 36050 ft 394 kts 290°
2026-04-23 02:43 19.10506 -74.57681 36049 ft 394 kts 290°
2026-04-23 02:44 19.12820 -74.62973 36044 ft 404 kts 290°
2026-04-23 02:44 19.15207 -74.68427 35247 ft 415 kts 291°
2026-04-23 02:44 19.16426 -74.71226 34332 ft 422 kts 291°
2026-04-23 02:45 19.17657 -74.74042 33753 ft 420 kts 291°
2026-04-23 02:45 19.18879 -74.76833 33183 ft 416 kts 291°
2026-04-23 02:45 19.20090 -74.79596 32632 ft 412 kts 291°
2026-04-23 02:45 19.21290 -74.82340 32177 ft 409 kts 291°
2026-04-23 02:46 19.22477 -74.85058 31675 ft 404 kts 291°
2026-04-23 02:46 19.23647 -74.87747 31166 ft 400 kts 291°
2026-04-23 02:46 19.24806 -74.90409 30714 ft 395 kts 292°
2026-04-23 02:46 19.25951 -74.93038 30201 ft 392 kts 292°
2026-04-23 02:47 19.27092 -74.95656 29628 ft 389 kts 292°
2026-04-23 02:47 19.28213 -74.98239 29188 ft 383 kts 292°
2026-04-23 02:47 19.29316 -75.00780 28771 ft 377 kts 292°
2026-04-23 02:47 19.30392 -75.03248 28373 ft 372 kts 292°
2026-04-23 02:48 19.31467 -75.05717 27968 ft 367 kts 292°
2026-04-23 02:48 19.32529 -75.08161 27561 ft 364 kts 292°
2026-04-23 02:48 19.33579 -75.10584 27154 ft 361 kts 292°
2026-04-23 02:48 19.34620 -75.12993 26742 ft 359 kts 292°
2026-04-23 02:49 19.35653 -75.15386 26330 ft 356 kts 292°
2026-04-23 02:49 19.36682 -75.17767 25905 ft 355 kts 292°
2026-04-23 02:49 19.37708 -75.20133 25485 ft 353 kts 292°
2026-04-23 02:49 19.38729 -75.22490 25040 ft 351 kts 292°
2026-04-23 02:50 19.39746 -75.24839 24601 ft 350 kts 292°
2026-04-23 02:50 19.40760 -75.27182 24156 ft 349 kts 293°
2026-04-23 02:50 19.41774 -75.29518 23709 ft 349 kts 293°
2026-04-23 02:50 19.42786 -75.31849 23198 ft 348 kts 293°
2026-04-23 02:51 19.43790 -75.34166 22752 ft 345 kts 293°
2026-04-23 02:51 19.44784 -75.36465 22319 ft 342 kts 293°
2026-04-23 02:51 19.45768 -75.38747 21901 ft 339 kts 293°
2026-04-23 02:51 19.46744 -75.41014 21456 ft 337 kts 294°
2026-04-23 02:52 19.47713 -75.43266 21049 ft 335 kts 293°
2026-04-23 02:52 19.48663 -75.45476 20640 ft 333 kts 293°
2026-04-23 02:52 19.49620 -75.47705 20233 ft 331 kts 293°
2026-04-23 02:52 19.50574 -75.49923 19820 ft 330 kts 294°
2026-04-23 02:53 19.51525 -75.52133 19411 ft 329 kts 294°
2026-04-23 02:53 19.52475 -75.54336 19005 ft 328 kts 294°
2026-04-23 02:53 19.53423 -75.56537 18604 ft 328 kts 294°
2026-04-23 02:53 19.54371 -75.58736 18173 ft 328 kts 294°
2026-04-23 02:54 19.55316 -75.60932 17751 ft 327 kts 294°
2026-04-23 02:54 19.56254 -75.63114 17362 ft 325 kts 294°
2026-04-23 02:54 19.57189 -75.65292 16968 ft 324 kts 294°
2026-04-23 02:54 19.58121 -75.67466 16540 ft 324 kts 294°
2026-04-23 02:55 19.59054 -75.69643 16160 ft 323 kts 294°
2026-04-23 02:55 19.59984 -75.71810 15774 ft 322 kts 294°
2026-04-23 02:55 19.60913 -75.73972 15391 ft 322 kts 294°
2026-04-23 02:55 19.61839 -75.76130 15015 ft 321 kts 294°
2026-04-23 02:56 19.62765 -75.78285 14637 ft 321 kts 294°
2026-04-23 02:56 19.63689 -75.80438 14256 ft 321 kts 294°
2026-04-23 02:56 19.64809 -75.82485 13841 ft 322 kts 304°
2026-04-23 02:56 19.66110 -75.84422 13397 ft 322 kts 304°
2026-04-23 02:57 19.67409 -75.86354 12979 ft 321 kts 304°
2026-04-23 02:57 19.67642 -75.86701 12905 ft 320 kts 304°
2026-04-23 03:23 19.67763 -75.86882 12862 ft 320 kts 303°
2026-04-23 03:23 19.69053 -75.88821 12406 ft 320 kts 303°
2026-04-23 03:23 19.70332 -75.90741 12024 ft 318 kts 304°
2026-04-23 03:23 19.71608 -75.92649 11608 ft 316 kts 304°
2026-04-23 03:24 19.72877 -75.94547 11190 ft 316 kts 304°
2026-04-23 03:24 19.74146 -75.96447 10762 ft 315 kts 304°
2026-04-23 03:24 19.75426 -75.98361 10340 ft 330 kts 304°
2026-04-23 03:24 19.76842 -76.00480 9982 ft 360 kts 305°
2026-04-23 03:25 19.78252 -76.02588 9854 ft 342 kts 305°
2026-04-23 03:25 19.79600 -76.04602 9712 ft 327 kts 305°
2026-04-23 03:25 19.80951 -76.06625 9605 ft 351 kts 305°
2026-04-23 03:25 19.82362 -76.08734 10151 ft 341 kts 305°
2026-04-23 03:26 19.83687 -76.10721 10212 ft 322 kts 306°
2026-04-23 03:26 19.85238 -76.12365 9953 ft 315 kts 327°
2026-04-23 03:26 19.87258 -76.13164 9513 ft 313 kts 351°
2026-04-23 03:26 19.89452 -76.12959 8653 ft 324 kts 15°
2026-04-23 03:27 19.91636 -76.12264 7810 ft 333 kts 17°
2026-04-23 03:27 19.93870 -76.11480 6957 ft 340 kts 24°
2026-04-23 03:27 19.95736 -76.09936 6084 ft 345 kts 53°
2026-04-23 03:27 19.96587 -76.07646 5882 ft 327 kts 79°
2026-04-23 03:28 19.96763 -76.05242 5088 ft 329 kts 90°
2026-04-23 03:28 19.96647 -76.02804 4305 ft 330 kts 94°
2026-04-23 03:28 19.96346 -76.00509 4546 ft 297 kts 106°
2026-04-23 03:28 19.95386 -75.98761 5119 ft 258 kts 126°
2026-04-23 03:29 19.94111 -75.97613 5399 ft 246 kts 153°
2026-04-23 03:29 19.92393 -75.97028 5165 ft 268 kts 167°
2026-04-23 03:29 19.90545 -75.96905 4915 ft 265 kts 184°
2026-04-23 03:29 19.88802 -75.97406 4778 ft 256 kts 203°
2026-04-23 03:30 19.87361 -75.98461 4618 ft 249 kts 225°
2026-04-23 03:30 19.86480 -75.99968 4621 ft 234 kts 252°
2026-04-23 03:30 19.86417 -76.01616 4504 ft 223 kts 288°
2026-04-23 03:30 19.87215 -76.03004 4325 ft 218 kts 313°
2026-04-23 03:31 19.88285 -76.04103 4149 ft 214 kts 327°
2026-04-23 03:31 19.89618 -76.04838 3774 ft 213 kts 346°
2026-04-23 03:31 19.90993 -76.05099 3689 ft 194 kts
2026-04-23 03:31 19.92265 -76.04975 3642 ft 175 kts 17°
2026-04-23 03:32 19.93361 -76.04570 3597 ft 159 kts 30°
2026-04-23 03:32 19.94324 -76.03919 3553 ft 169 kts 41°
2026-04-23 03:32 19.95145 -76.03023 3437 ft 169 kts 54°
2026-04-23 03:32 19.95741 -76.01950 3268 ft 169 kts 66°
2026-04-23 03:33 19.95956 -76.00733 3011 ft 169 kts 88°
2026-04-23 03:33 19.96006 -75.99509 2770 ft 162 kts 83°
2026-04-23 03:33 19.96091 -75.98350 2547 ft 152 kts 83°
2026-04-23 03:33 19.96169 -75.97257 2368 ft 145 kts 82°
2026-04-23 03:34 19.96244 -75.96194 2177 ft 143 kts 82°
2026-04-23 03:34 19.96315 -75.95168 2001 ft 135 kts 82°
2026-04-23 03:34 19.96384 -75.94192 1826 ft 131 kts 82°
2026-04-23 03:34 19.96450 -75.93234 1646 ft 130 kts 82°
2026-04-23 03:35 19.96517 -75.92279 1481 ft 130 kts 82°
2026-04-23 03:35 19.96584 -75.91319 1318 ft 131 kts 83°
2026-04-23 03:35 19.96651 -75.90354 1155 ft 132 kts 82°
2026-04-23 03:35 19.96719 -75.89379 990 ft 134 kts 82°
2026-04-23 03:36 19.96787 -75.88391 819 ft 135 kts 83°
2026-04-23 03:36 19.96855 -75.87403 646 ft 134 kts 82°
2026-04-23 03:36 19.96924 -75.86413 480 ft 135 kts 82°
2026-04-23 03:36 19.96991 -75.85435 306 ft 134 kts 91°
2026-04-23 03:37 19.96980 -75.84496 236 ft 115 kts 88°
2026-04-23 03:37 19.96989 -75.83805 236 ft 68 kts 90°
2026-04-23 03:37 19.96988 -75.83436 233 ft 43 kts 90°
2026-04-23 03:37 19.96989 -75.83125 228 ft 41 kts 89°
2026-04-23 03:38 19.96991 -75.82822 223 ft 41 kts 89°
2026-04-23 03:38 19.96995 -75.82529 221 ft 39 kts 89°
2026-04-23 03:38 19.96999 -75.82245 218 ft 38 kts 89°
2026-04-23 03:38 19.97004 -75.81967 214 ft 38 kts 89°
2026-04-23 03:39 19.97022 -75.81740 210 ft 18 kts 52°
2026-04-23 03:39 19.97032 -75.81684 216 ft 7 kts 191°
2026-04-23 03:39 19.97007 -75.81746 209 ft 12 kts 270°
2026-04-23 03:39 19.97004 -75.81875 211 ft 25 kts 267°
2026-04-23 03:40 19.97000 -75.82100 217 ft 36 kts 270°
2026-04-23 03:40 19.96997 -75.82383 219 ft 39 kts 269°
2026-04-23 03:40 19.96995 -75.82665 222 ft 38 kts 270°
2026-04-23 03:40 19.96996 -75.82942 225 ft 36 kts 271°
2026-04-23 03:41 19.96995 -75.83191 230 ft 32 kts 268°
2026-04-23 03:41 19.96994 -75.83411 233 ft 28 kts 269°
2026-04-23 03:41 19.96990 -75.83598 237 ft 24 kts 269°
2026-04-23 03:41 19.97020 -75.83752 237 ft 21 kts 323°
2026-04-23 03:42 19.97127 -75.83852 234 ft 18 kts 315°
2026-04-23 03:42 19.97147 -75.83839 235 ft 4 kts 79°
2026-04-23 03:42 19.97148 -75.83808 233 ft 4 kts 94°
2026-04-23 03:42 19.97146 -75.83794 233 ft 1 kts 100°